Hamilton, OH

3:12 PM EDT on September 23, 2017 (GMT -0400)
Butler County Regional

Weather History for KHAO - January, 2014

Change the Weather History Date:

Saturday, January 25, 2014

  Actual Average (KLUK) Record (KLUK)
Temperature  
Mean Temperature 23 °F -  
Max Temperature 34 °F 41 °F 74 °F (1950)
Min Temperature 10 °F 23 °F -6 °F (1961)
Degree Days  
Heating Degree Days 42    
Moisture  
Dew Point 15 °F    
Average Humidity 72    
Maximum Humidity 93    
Minimum Humidity 46    
Precipitation  
Precipitation 0.11 in - - ()
Sea Level Pressure  
Sea Level Pressure 29.69 in    
Wind  
Wind Speed 15 mph (WSW)    
Max Wind Speed 30 mph    
Max Gust Speed 40 mph    
Visibility 4 miles    
Events Snow    
Averages and records for this station are not official NWS values.
T = Trace of Precipitation, MM = Missing Value Source: NWS Daily Summary

Daily Weather History Graph

Daily Weather History Graph

Search for Another Location

Airport or City:

Trip Planner

Search our weather history database for the weather conditions in past years. The results will help you decide how hot, cold, wet, or windy it might be!

Date:

Astronomy

Jan. 25, 2014 Rise Set
Actual Time 7:50 AM EST 5:50 PM EST
Civil Twilight 7:22 AM EST 6:19 PM EST
Nautical Twilight 6:49 AM EST 6:51 PM EST
Astronomical Twilight 6:17 AM EST 7:23 PM EST
Moon 2:22 AM EST (1/25) 12:50 PM EST (1/25)
Length of Visible Light 10h 57m
Length of Day
9h 59m
Waning Crescent, 34% of the Moon is Illuminated
Jan 25
Waning Crescent
Jan 30
New
Feb 6
First Quarter
Feb 14
Full
Feb 22
Last Quarter

Hourly Weather History & Observations

Time (EST) Temp. Windchill Dew Point Humidity Pressure Visibility Wind Dir Wind Speed Gust Speed Precip Events Conditions
12:29 AM 21.9 °F 7.3 °F 9.0 °F 58% 29.84 in 2.5 mi WSW 18.4 mph 31.1 mph 0.00 in Snow Light Snow
12:38 AM 21.9 °F 7.3 °F 10.9 °F 63% 29.83 in 1.5 mi SW 18.4 mph 32.2 mph 0.00 in Snow Light Snow
12:53 AM 21.0 °F 6.6 °F 12.9 °F 71% 29.85 in 1.2 mi SW 17.3 mph 26.5 mph 0.00 in Snow Light Snow
1:06 AM 21.0 °F 5.4 °F 12.9 °F 71% 29.81 in 1.8 mi SW 20.7 mph 31.1 mph 0.00 in Snow Light Snow
1:18 AM 21.0 °F 7.6 °F 14.0 °F 74% 29.81 in 1.5 mi SW 15.0 mph 25.3 mph 0.00 in Snow Light Snow
1:53 AM 19.9 °F 9.3 °F 16.0 °F 85% 29.82 in 0.8 mi SSW 9.2 mph 23.0 mph 0.01 in Snow Light Snow
2:00 AM 19.9 °F 8.6 °F 16.0 °F 85% 29.78 in 1.2 mi SSW 10.4 mph 21.9 mph 0.00 in Snow Light Snow
2:49 AM 21.2 °F 8.9 °F 17.6 °F 86% 29.74 in 0.8 mi SSW 12.7 mph 24.2 mph 0.01 in Snow Light Snow
2:53 AM 21.0 °F 8.6 °F 17.1 °F 85% 29.77 in 0.8 mi SSW 12.7 mph 23.0 mph 0.02 in Snow Light Snow
3:00 AM 21.0 °F 8.1 °F 17.1 °F 85% 29.73 in 0.8 mi SSW 13.8 mph 20.7 mph 0.00 in Snow Light Snow
3:39 AM 21.0 °F 11.4 °F 17.1 °F 85% 29.70 in 1.0 mi SSW 8.1 mph 19.6 mph 0.01 in Snow Light Snow
3:53 AM 21.0 °F 8.6 °F 17.1 °F 85% 29.72 in 1.5 mi SW 12.7 mph 23.0 mph 0.02 in Snow Light Snow
4:53 AM 21.0 °F 9.3 °F 18.0 °F 88% 29.68 in 1.0 mi SSW 11.5 mph 21.9 mph 0.02 in Snow Light Snow
5:53 AM 21.9 °F 9.2 °F 18.0 °F 85% 29.66 in 1.5 mi SW 13.8 mph 25.3 mph 0.01 in Snow Light Snow
5:55 AM 21.9 °F 8.7 °F 18.0 °F 85% 29.62 in 2.0 mi SSW 15.0 mph 25.3 mph 0.00 in Snow Light Snow
6:00 AM 21.9 °F 9.2 °F 18.0 °F 85% 29.62 in 3.0 mi SSW 13.8 mph 25.3 mph 0.00 in Snow Light Snow
6:38 AM 23.0 °F 12.4 °F 18.0 °F 81% 29.61 in 2.5 mi SSW 10.4 mph 19.6 mph 0.01 in Snow Light Snow
6:50 AM 21.2 °F 10.1 °F 19.4 °F 93% 29.61 in 1.8 mi SSW 10.4 mph 19.6 mph 0.01 in Snow Light Snow
6:53 AM 23.0 °F 12.4 °F 19.0 °F 85% 29.63 in 1.8 mi SSW 10.4 mph 19.6 mph 0.01 in Snow Light Snow
7:01 AM 23.0 °F 12.4 °F 19.0 °F 85% 29.60 in 2.5 mi SSW 10.4 mph 18.4 mph 0.00 in Snow Light Snow
7:10 AM 23.0 °F 12.4 °F 19.0 °F 85% 29.60 in 4.0 mi SW 10.4 mph 20.7 mph 0.00 in Snow Light Snow
7:29 AM 23.0 °F 12.4 °F 19.0 °F 85% 29.59 in 2.0 mi SW 10.4 mph 18.4 mph 0.00 in Snow Light Snow
7:32 AM 23.0 °F 13.9 °F 19.0 °F 85% 29.59 in 1.5 mi SW 8.1 mph 18.4 mph 0.00 in Snow Light Snow
7:53 AM 23.0 °F 10.1 °F 19.9 °F 88% 29.61 in 0.8 mi SW 15.0 mph 21.9 mph 0.01 in Snow Light Snow
8:14 AM 23.0 °F 12.4 °F 19.9 °F 88% 29.58 in 1.2 mi SSW 10.4 mph 19.6 mph 0.01 in Snow Light Snow
8:33 AM 24.1 °F 11.5 °F 19.9 °F 84% 29.58 in 2.0 mi SW 15.0 mph 20.7 mph 0.01 in Snow Light Snow
8:45 AM 24.1 °F 15.2 °F 19.9 °F 84% 29.58 in 1.5 mi SW 8.1 mph 23.0 mph 0.01 in Snow Light Snow
8:53 AM 24.1 °F 12.0 °F 19.9 °F 84% 29.61 in 1.2 mi SW 13.8 mph 19.6 mph 0.01 in Snow Light Snow
8:59 AM 25.0 °F 13.6 °F 19.9 °F 81% 29.58 in 2.0 mi WSW 12.7 mph 19.6 mph 0.00 in Snow Light Snow
9:08 AM 25.0 °F 14.2 °F 19.9 °F 81% 29.58 in 6.0 mi WSW 11.5 mph 23.0 mph 0.00 in Snow Light Snow
9:53 AM 26.1 °F 14.5 °F 21.0 °F 81% 29.59 in 9.0 mi WSW 13.8 mph 25.3 mph 0.00 in Snow Light Snow
10:53 AM 28.9 °F 16.9 °F 21.9 °F 75% 29.58 in 10.0 mi WSW 17.3 mph 24.2 mph 0.00 in   Overcast
11:41 AM 32.0 °F 22.1 °F 23.0 °F 69% 29.55 in 10.0 mi WSW 13.8 mph 25.3 mph N/A   Overcast
11:53 AM 34.0 °F 23.4 °F 23.0 °F 64% 29.56 in 10.0 mi West 17.3 mph 33.4 mph N/A   Mostly Cloudy
12:53 PM 33.1 °F 22.2 °F 23.0 °F 66% 29.55 in 4.0 mi West 17.3 mph 27.6 mph 0.00 in Snow Light Snow
1:53 PM 34.0 °F 21.0 °F 15.1 °F 46% 29.55 in 9.0 mi WNW 26.5 mph 35.7 mph 0.00 in Snow Light Snow
2:53 PM 30.0 °F 14.9 °F 12.9 °F 49% 29.60 in 2.5 mi WNW 29.9 mph 40.3 mph 0.00 in Snow Light Snow
3:07 PM 28.0 °F 13.6 °F 14.0 °F 56% 29.59 in 4.0 mi NW 24.2 mph 38.0 mph 0.00 in Snow Light Snow
3:49 PM 26.6 °F 11.1 °F 12.2 °F 55% 29.63 in 2.5 mi NW 26.5 mph 36.8 mph 0.00 in Snow Light Snow
3:53 PM 26.1 °F 11.3 °F 12.0 °F 55% 29.66 in 3.0 mi NW 23.0 mph 36.8 mph 0.00 in Snow Light Snow
4:03 PM 25.0 °F 9.5 °F 12.0 °F 58% 29.64 in 2.0 mi WNW 24.2 mph 40.3 mph 0.00 in Snow Light Snow
4:13 PM 25.0 °F 8.4 °F 12.0 °F 58% 29.66 in 3.0 mi WNW 28.8 mph 40.3 mph 0.00 in Snow Light Snow
4:31 PM 23.0 °F 7.2 °F 10.9 °F 60% 29.68 in 2.5 mi WNW 23.0 mph 40.3 mph 0.00 in Snow Light Snow
4:41 PM 24.1 °F 9.8 °F 9.0 °F 53% 29.69 in 4.0 mi WNW 19.6 mph 34.5 mph 0.00 in Snow Light Snow
4:53 PM 24.1 °F 12.5 °F 6.1 °F 46% 29.73 in 7.0 mi West 12.7 mph 33.4 mph 0.00 in   Partly Cloudy
5:53 PM 21.9 °F 6.9 °F 7.0 °F 53% 29.79 in 10.0 mi WNW 19.6 mph 29.9 mph 0.00 in   Mostly Cloudy
6:53 PM 19.0 °F 4.0 °F 9.0 °F 65% 29.86 in 8.0 mi WNW 17.3 mph 29.9 mph 0.00 in Snow Light Snow
7:53 PM 17.1 °F 3.0 °F 5.0 °F 59% 29.90 in 9.0 mi WNW 13.8 mph 23.0 mph 0.00 in Snow Light Snow
8:53 PM 16.0 °F 1.7 °F 1.9 °F 54% 29.93 in 10.0 mi WNW 13.8 mph 21.9 mph 0.00 in   Clear
9:53 PM 14.0 °F 2.0 °F 1.9 °F 59% 29.95 in 9.0 mi West 9.2 mph - 0.00 in Snow Light Snow
10:53 PM 12.0 °F 4.1 °F 1.0 °F 61% 29.96 in 9.0 mi West 4.6 mph - 0.00 in Snow Light Snow
11:53 PM 10.9 °F 0.2 °F -0.9 °F 59% 29.94 in 9.0 mi West 6.9 mph - 0.00 in Snow Light Snow